Hourly Weather Roundup
Issued by NWS Central Illinois

Home | Current Version | Previous Version | Text Only | Print | Product List | Glossary On
Versions: 1 2 3 4 5 6 7 8 9 10 11 12 13 14 15 16 17 18 19 20 21 22 23 24 25 26 27 28 29 30 31 32 33 34 35 36 37 38 39 40 41 42 43 44 45 46 47 48 49 50
994
NZUS43 KILX 240610
HWRILX

AREA WEATHER ROUNDUP
NATIONAL WEATHER SERVICE, LINCOLN IL
100 AM CDT TUE MAY 24 2016


CITY           SKY/WX    TMP DP  RH WIND       PRES   REMARKS
BLOOMINGTON    PTCLDY    64  51  62 S10       29.98R
6HR MIN TEMP:  62; 6HR MAX TEMP:  80;

CHAMPAIGN      CLOUDY    64  45  49 S7        29.98R
6HR MIN TEMP:  64; 6HR MAX TEMP:  78;

DANVILLE       PTCLDY    63  44  50 SE6       29.96S
6HR MIN TEMP:  63; 6HR MAX TEMP:  79;

DECATUR        PTCLDY    68  49  50 S9        29.98R
6HR MIN TEMP:  68; 6HR MAX TEMP:  80;

EFFINGHAM      CLOUDY    63  53  68 CALM      30.00R
FLORA          PTCLDY    64  55  72 CALM      29.98F
6HR MIN TEMP:  62; 6HR MAX TEMP:  81;

GALESBURG      PTCLDY    65  51  61 S7        29.93F
JACKSONVILLE   CLEAR     66  52  60 CALM      29.95R
6HR MIN TEMP:  65; 6HR MAX TEMP:  81;

LACON          PTCLDY    63  48  58 SE6       29.94R
6HR MIN TEMP:  63; 6HR MAX TEMP:  80;

LAWRENCEVILLE  CLOUDY    62  53  72 SE5       29.99S
6HR MIN TEMP:  60; 6HR MAX TEMP:  75;

LITCHFIELD     PTCLDY    61  53  76 S3        29.96R
$$


CITY           SKY/WX    TMP DP  RH WIND       PRES   REMARKS
LINCOLN        CLOUDY    65  55  68 CALM      29.96R HAZE
6HR MIN TEMP:  65; 6HR MAX TEMP:  83;

MACOMB         PTCLDY    62  51  66 S6        29.96S
MATTOON        CLOUDY    65  47  52 S7        29.98R
6HR MIN TEMP:  65; 6HR MAX TEMP:  76;

MT CARMEL AP   CLOUDY    61  54  79 CALM      29.99S
6HR MIN TEMP:  61; 6HR MAX TEMP:  79;

OLNEY-NOBLE AP CLOUDY    63  50  63 SE5       29.99S
PARIS          CLEAR     61  46  58 CALM      29.99S
6HR MIN TEMP:  60; 6HR MAX TEMP:  77;

PEORIA         CLOUDY    65  50  58 S6        29.95R
6HR MIN TEMP:  64; 6HR MAX TEMP:  81;

PONTIAC        PTCLDY    68  47  46 S10       29.96S
RANTOUL        PTCLDY    64  46  52 CALM      29.98R
6HR MIN TEMP:  64; 6HR MAX TEMP:  80;

ROBINSON       PTCLDY    56  53  88 CALM      30.00S
6HR MIN TEMP:  55; 6HR MAX TEMP:  74;

SPRINGFIELD    CLEAR     66  52  60 CALM      29.96R
6HR MIN TEMP:  66; 6HR MAX TEMP:  82;

TAYLORVILLE    PTCLDY    63  55  75 SE5       29.97R
$$

...REGIONAL REPORTS...


CITY           SKY/WX    TMP DP  RH WIND       PRES   REMARKS
CHICAGO O`HARE PTCLDY    60  43  53 S6        29.94R
KANKAKEE       CLEAR    N/A N/A N/A S7        29.97S
MOLINE         CLOUDY    68  48  48 CALM      29.91R
MOUNT STERLING PTCLDY    62  52  68 CALM      29.94R
MOUNT VERNON   CLEAR     57  52  82 CALM      29.98S
PITTSFIELD     MOCLDY    64  55  71 S3        29.96R
QUINCY         CLOUDY    65  53  65 SE5       29.94R
ROCKFORD       CLOUDY    66  47  50 S3        29.94R
$$


CITY           SKY/WX    TMP DP  RH WIND       PRES   REMARKS
BURLINGTON     CLEAR     66  51  58 S7        29.91R
CEDAR RAPIDS   PTCLDY    66  54  65 S8        29.89R
DES MOINES     MOCLDY    68  60  75 S8        29.87S
KIRKSVILLE     CLOUDY    66  56  70 S9        29.93R
OTTUMWA        CLOUDY    66  55  67 S8        29.90R
ST LOUIS       CLOUDY    72  53  51 S5        29.96R
$$


CITY           SKY/WX    TMP DP  RH WIND       PRES   REMARKS
TERRE HAUTE    PTCLDY    58  47  66 E5        29.99F
EVANSVILLE     CLOUDY    60  49  66 CALM      30.00S
INDIANAPOLIS   PTCLDY    62  41  46 SE9       30.00S
LAFAYETTE      CLEAR     54  44  69 CALM      29.99R
MADISON        CLEAR     61  50  67 SW3       29.90R
MILWAUKEE      PTCLDY    63  39  41 S6        29.92S
$$






USA.gov is the U.S. government's official web portal to all federal, state and local government web resources and services.